Skip Page Navigation
NASA JPL Caltech
NASA Logo - Jet Propulsion Laboratory + View the NASA Portal
+ Center for Near-Earth Object Studies
JPL Home Earth Solar System Stars & Galaxies Technology
JPL Solar System Dynamics
BODIES ORBITS EPHEMERIDES TOOLS PHYSICAL DATA DISCOVERY FAQ SITE MAP
JPL Small-Body Database Browser
Search: [ help ]  
71260 (2000 AB23)
Classification: Main-belt Asteroid          SPK-ID: 2071260
Ephemeris | Orbit Diagram | Orbital Elements | Mission Design | Physical Parameters | Discovery Circumstances ]

[ show orbit diagram ]
Orbital Elements at Epoch 2459000.5 (2020-May-31.0) TDB
Reference: JPL 18 (heliocentric ecliptic J2000)
 Element Value Uncertainty (1-sigma)   Units 
e .1707770652886654 4.4272e-08  
a 2.717098431499848 1.6156e-08 au
q 2.253080335267868 1.2398e-07 au
i 6.082668011782748 4.5335e-06 deg
node 79.55898117802148 4.8626e-05 deg
peri 302.6798729820645 5.0695e-05 deg
M 259.7707732959515 1.6112e-05 deg
tp 2459455.958030058408
(2021-Aug-29.45803006)
7.5612e-05 TDB
period 1635.89899087193
4.48
1.4591e-05
3.995e-08
d
yr
n .2200624867481096 1.9628e-09 deg/d
Q 3.181116527731827 1.8915e-08 au
  Orbit Determination Parameters
   # obs. used (total)      751  
   data-arc span      8921 days (24.42 yr)  
   first obs. used      1996-01-14  
   last obs. used      2020-06-17  
   planetary ephem.      DE431  
   SB-pert. ephem.      SB431-N16  
   condition code      0  
   norm. resid. RMS      .5901  
   source      ORB  
   producer      Otto Matic  
   solution date      2020-Jun-23 23:39:07  

Additional Information
 Earth MOID = 1.26367 au 
 Jupiter MOID = 2.28717 au 
 T_jup = 3.331 
[ show covariance matrix ]

Ephemeris | Orbit Diagram | Orbital Elements | Mission Design | Physical Parameters | Discovery Circumstances ]

Physical Parameter Table
Parameter Symbol Value Units Sigma Reference Notes
absolute magnitude H 14.9   n/a MPO436281  

71260 (2000 AB23)          Discovered 2000-Jan-03 by LINEAR at Socorro
Reference: 20031109/Numbers.arcLast Updated: 2004-04-19
Ephemeris | Orbit Diagram | Orbital Elements | Mission Design | Physical Parameters | Discovery Circumstances ]
ABOUT SSD CREDITS/AWARDS PRIVACY/COPYRIGHT GLOSSARY LINKS
FirstGov 2020-Jul-06 00:01 UT
(server date/time)  
NASA Home Page
Site Manager:   Ryan S. Park
Webmaster  Alan B. Chamberlin